Flag for Portugal Weather past 2 weeks in Faro, Portugal

Now
52 °F

Sunny.


Feels Like: 47 °F
Forecast: 53 / 62 °F
Wind: 13 mph from Northeast

Location: Faro / Aeroporto

Current Time: Dec 22, 2014 at 8:50:01 AM

Latest Report: Dec 22, 2014 at 8:00 AM


Visibility: 10 mi

Pressure: 30.33 "Hg

Humidity: 88%

Dew point: 48 °F

Location of FaroLocation

Historic Weather in Faro — Graph

°F

Faro temperature yesterday

Maximum temperature yesterday: 63 °F (at 1:30 PM)
Minimum temperature yesterday: 43 °F (at 2:00 AM)
Average temperature yesterday: 52 °F

Past Weeks' High & Low Weather Summary

 TemperatureHumidityPressure
High64 °F (Dec 8, 2:00 PM)100% (Dec 13, 10:00 AM)30.48 "Hg (Dec 13, 10:00 AM)
Low41 °F (Dec 8, 6:00 AM)37% (Dec 8, 1:00 PM)29.68 "Hg (Dec 14, 2:30 AM)
Average54 °F77%30.26 "Hg
* Reported Dec 7 7:00 AM — Dec 22 7:30 AM, Faro, Weather by CustomWeather, © 2014

Note: Actual official high and low records may vary slightly from our data, if they occured in-between our weather recording intervals... More about our weather records

Advertising

Faro weather history for previous 24 hours

 ConditionsComfort  
Time TempWeatherWind HumidityBarometerVisibility
7:30 AM
Dec 22
50 °FClear.6 mph94%30.33 "Hg10 mi
7:00 AM52 °FClear.8 mph88%30.33 "Hg10 mi
6:30 AM50 °FClear.8 mph94%30.33 "Hg10 mi
6:00 AM52 °FClear.8 mph88%30.33 "Hg10 mi
5:00 AM52 °FClear.9 mph88%30.33 "Hg10 mi
4:30 AM52 °FClear.9 mph88%30.33 "Hg10 mi
4:00 AM52 °FClear.6 mph88%30.33 "Hg10 mi
3:30 AM52 °FClear.8 mph88%30.33 "Hg10 mi
3:00 AM52 °FClear.9 mph88%30.33 "Hg10 mi
2:30 AM52 °FClear.8 mph88%30.33 "Hg10 mi
2:00 AM52 °FClear.8 mph88%30.33 "Hg10 mi
1:30 AM52 °FClear.8 mph88%30.33 "Hg10 mi
1:00 AM52 °FClear.7 mph88%30.33 "Hg10 mi
12:00 AM50 °FClear.7 mph94%30.36 "Hg10 mi
11:30 PM
Dec 21
52 °FClear.7 mph94%30.36 "Hg10 mi
11:00 PM52 °FClear.7 mph94%30.36 "Hg10 mi
10:30 PM52 °FClear.5 mph94%30.36 "Hg10 mi
10:00 PM52 °FClear.6 mph88%30.36 "Hg10 mi
9:00 PM54 °FClear.7 mph88%30.36 "Hg10 mi
8:30 PM55 °FClear.7 mph82%30.36 "Hg10 mi
8:00 PM55 °FClear.7 mph82%30.36 "Hg10 mi
7:30 PM55 °FClear.7 mph88%30.36 "Hg10 mi
7:00 PM55 °FClear.7 mph88%30.36 "Hg10 mi
6:30 PM57 °FClear.6 mph82%30.36 "Hg10 mi
6:00 PM57 °FClear.6 mph82%30.36 "Hg10 mi
5:30 PM59 °FClear.5 mph77%30.36 "Hg10 mi
5:00 PM61 °FSunny.6 mph77%30.36 "Hg10 mi
4:30 PM61 °FSunny.9 mph77%30.36 "Hg10 mi
4:00 PM63 °FSunny.9 mph73%30.33 "Hg10 mi
3:30 PM63 °FSunny.8 mph73%30.36 "Hg10 mi
3:00 PM61 °FSunny.8 mph77%30.36 "Hg10 mi
2:30 PM63 °FSunny.8 mph73%30.36 "Hg10 mi
2:00 PM63 °FSunny.3 mph73%30.36 "Hg10 mi
1:30 PM63 °FPassing clouds.6 mph73%30.39 "HgN/A
1:00 PM61 °FSunny.7 mph77%30.39 "Hg10 mi
12:30 PM61 °FPassing clouds.7 mph77%30.39 "HgN/A
12:00 PM59 °FPassing clouds.6 mph82%30.42 "HgN/A
11:30 AM57 °FSunny.7 mph82%30.45 "Hg10 mi
11:00 AM54 °FPassing clouds.8 mph94%30.45 "Hg5 mi
10:30 AM54 °FPartly sunny.8 mph94%30.45 "Hg4 mi
10:00 AM52 °FBroken clouds.10 mph88%30.45 "HgN/A
9:30 AM48 °FPartly sunny.7 mph100%30.45 "Hg4 mi
9:00 AM48 °FPartly sunny.8 mph94%30.42 "Hg4 mi
8:46 AM48 °FPartly sunny.7 mph94%30.42 "HgN/A
8:30 AM45 °FScattered clouds.6 mph93%30.42 "HgN/A
8:00 AM46 °FPassing clouds.7 mph93%30.42 "HgN/A
Weather by CustomWeather, © 2014

See weather overviewHow to use our weather pages